FW8347 Weather Reports


time (UTC)temp
F
wind
direction
speed
knots
gust
knots
rain 1hr
in
rain 24hr
in
rain mn
in
humidity
%
barometer
mb
20260507224553 47 360 1.7 3.5 0.00 0.00 0.00 66 1010.0
20260507223046 47 275 2.6 6.1 0.00 0.00 0.00 63 1010.0
20260507221547 48 275 2.6 6.1 0.00 0.00 0.00 64 1010.1
20260507220053 48 360 1.7 4.3 0.00 0.00 0.00 60 1010.1
20260507214545 48 360 0.9 3.5 0.00 0.00 0.00 60 1010.2
20260507213046 47 360 0.9 3.5 0.00 0.00 0.00 60 1010.2
20260507211546 47 360 0.0 2.6 0.00 0.00 0.00 64 1010.1
20260507204541 47 0 0.0 0.9 0.00 0.00 0.00 65 1010.2
20260507203112 47 0 0.0 2.6 0.00 0.00 0.00 68 1010.3
20260507201542 47 0 0.0 0.0 0.00 0.00 0.00 66 1010.4
20260507200041 46 360 0.9 3.5 0.00 0.00 0.00 67 1010.5
20260507194558 46 360 0.9 2.6 0.00 0.00 0.00 65 1010.5
20260507193046 46 360 0.9 3.5 0.00 0.00 0.00 64 1010.8
20260507191548 47 0 0.0 0.0 0.00 0.00 0.00 63 1010.9
20260507190047 46 0 0.0 3.5 0.00 0.00 0.00 70 1011.2
20260507184549 45 26 2.6 6.1 0.00 0.00 0.00 69 1011.3
20260507183045 45 19 2.6 4.3 0.00 0.00 0.00 70 1011.5
20260507181547 44 19 2.6 4.3 0.00 0.00 0.00 73 1011.6
20260507180045 45 11 2.6 4.3 0.00 0.00 0.00 71 1011.6
20260507174546 45 5 0.9 3.5 0.00 0.00 0.00 72 1011.6
20260507173115 44 11 3.5 7.0 0.00 0.00 0.00 73 1011.7
20260507171544 44 360 5.2 7.8 0.00 0.00 0.00 76 1011.9
20260507170049 45 5 5.2 7.8 0.00 0.00 0.00 74 1012.0
20260507164542 45 5 3.5 7.0 0.00 0.00 0.00 74 1012.1
20260507163046 45 5 4.3 7.0 0.00 0.00 0.00 73 1012.2
20260507161550 45 355 4.3 5.2 0.00 0.00 0.00 73 1012.4
20260507160053 45 345 4.3 7.0 0.00 0.00 0.00 72 1012.5
20260507154546 45 342 4.3 7.8 0.00 0.01 0.00 72 1012.7
20260507153041 45 340 7.0 8.7 0.00 0.01 0.00 71 1012.8
20260507151547 46 309 4.3 7.0 0.00 0.01 0.00 68 1012.7
20260507150047 46 293 2.6 5.2 0.00 0.01 0.00 69 1012.7
20260507144545 45 277 3.5 6.1 0.00 0.02 0.00 67 1012.8
20260507143058 45 277 2.6 6.1 0.00 0.02 0.00 70 1012.9
20260507141554 44 284 4.3 7.0 0.00 0.02 0.00 72 1013.0
20260507140041 43 304 6.1 9.6 0.00 0.02 0.00 75 1013.2
20260507134549 43 322 6.1 9.6 0.00 0.03 0.00 76 1013.2
20260507133118 43 333 8.7 11.3 0.00 0.03 0.00 75 1013.4
20260507131548 43 305 7.8 10.4 0.00 0.03 0.00 73 1013.3
20260507130057 43 313 7.8 11.3 0.00 0.03 0.00 72 1013.1
20260507124542 43 309 7.8 12.2 0.00 0.05 0.00 74 1013.1
20260507123049 43 309 8.7 12.2 0.00 0.05 0.00 76 1013.1
20260507121544 42 323 7.8 10.4 0.00 0.05 0.00 78 1013.2
20260507120045 42 288 2.6 7.0 0.00 0.05 0.00 80 1013.0
20260507114557 41 212 1.7 5.2 0.00 0.07 0.00 83 1013.0
20260507113041 40 212 3.5 5.2 0.00 0.07 0.00 82 1013.0
20260507111545 40 212 2.6 5.2 0.00 0.07 0.00 84 1012.9
20260507110046 39 212 2.6 3.5 0.00 0.07 0.00 85 1012.5
20260507104543 38 212 1.7 3.5 0.00 0.16 0.00 85 1012.5
20260507103045 38 212 2.6 4.3 0.00 0.16 0.00 85 1012.3
20260507101548 38 209 2.6 5.2 0.00 0.16 0.00 84 1012.4
20260507100050 38 211 3.5 5.2 0.00 0.16 0.00 84 1012.3
20260507094555 37 211 3.5 5.2 0.00 0.20 0.00 85 1012.1
20260507093043 37 211 2.6 5.2 0.00 0.20 0.00 86 1012.1
20260507091542 37 210 3.5 4.3 0.00 0.20 0.00 85 1012.4
20260507090042 37 218 1.7 3.5 0.00 0.20 0.00 85 1012.2
20260507084544 38 213 2.6 5.2 0.00 0.26 0.00 86 1012.3
20260507083052 38 213 2.6 5.2 0.00 0.26 0.00 86 1012.3
20260507081543 38 209 2.6 5.2 0.00 0.26 0.00 86 1012.2
20260507080053 39 209 2.6 4.3 0.00 0.26 0.00 84 1012.3
20260507074552 41 221 2.6 6.1 0.00 0.36 0.00 84 1012.3
20260507073049 42 281 5.2 10.4 0.00 0.36 0.00 86 1012.6
20260507071546 41 275 5.2 7.8 0.00 0.36 0.00 84 1012.5
20260507070054 41 242 3.5 6.1 0.00 0.36 0.00 80 1012.4
20260507064550 43 221 3.5 10.4 0.00 0.47 0.00 75 1012.3
20260507063046 44 300 8.7 11.3 0.00 0.47 0.00 77 1012.1
20260507061548 44 296 7.8 12.2 0.00 0.47 0.00 77 1012.1
20260507060048 44 295 10.4 13.9 0.00 0.47 0.00 75 1012.4
20260507054546 44 293 11.3 14.8 0.00 0.56 0.00 76 1012.6
20260507053044 44 291 11.3 16.5 0.00 0.56 0.00 76 1012.6
20260507051544 44 287 11.3 15.6 0.00 0.56 0.00 76 1012.7
20260507050046 44 295 12.2 16.5 0.00 0.56 0.00 77 1012.8
20260507044555 44 290 10.4 13.9 0.00 0.61 0.00 79 1012.7
20260507043048 44 290 11.3 14.8 0.00 0.61 0.00 79 1012.6
20260507041547 45 302 11.3 14.8 0.00 0.61 0.00 85 1012.5
20260507040048 45 284 11.3 16.5 0.00 0.61 0.00 89 1012.5
20260507034547 44 300 10.4 13.9 0.00 0.62 0.61 91 1012.5
20260507033100 44 286 8.7 12.2 0.00 0.62 0.61 92 1012.3
20260507031555 43 284 7.8 10.4 0.00 0.62 0.61 93 1012.2
20260507024602 43 265 7.0 9.6 0.00 0.65 0.61 93 1012.1
20260507023043 42 276 5.2 8.7 0.00 0.65 0.61 92 1012.3
20260507021552 42 263 5.2 7.0 0.00 0.65 0.61 92 1012.3
20260507020056 42 243 4.3 7.8 0.00 0.65 0.61 92 1012.3
20260507014552 43 298 7.8 12.2 0.00 0.67 0.61 93 1012.2
20260507013042 42 302 8.7 13.9 0.00 0.67 0.61 92 1012.4
20260507011548 42 305 12.2 14.8 0.00 0.67 0.61 91 1012.2
20260507010047 42 315 11.3 13.9 0.00 0.67 0.61 90 1012.1
20260507004545 43 329 10.4 13.9 0.00 0.71 0.61 87 1011.7
20260507003045 44 329 5.2 7.8 0.00 0.71 0.61 87 1011.7
20260507001547 44 45 0.9 2.6 0.00 0.71 0.61 85 1011.2
20260507000049 44 0 0.9 3.5 0.00 0.71 0.61 85 1011.1
20260506234554 45 45 1.7 3.5 0.00 0.75 0.61 86 1011.1
20260506233050 45 45 2.6 5.2 0.00 0.75 0.61 86 1010.8
20260506231552 45 53 2.6 5.2 0.00 0.75 0.61 85 1010.7
20260506230041 45 84 0.0 2.6 0.00 0.75 0.61 85 1010.3